User: anonymous   Login
Location: Unspecified
(0.0000°N, 0.0000°E)
Time: 09:01:46
(UTC+00:00)
Language:

ONEWEB-0385 - Orbit

View from above orbital plane
View from above orbital plane
View from above satellite
View from above satellite

Ground track
Ground track

The orbit is defined by the following mean orbital elements,

1 49311U          26145.33595336 +.00000000 +00000-0 +29300-3 0 00003
2 49311  87.9174 278.9960 0002074  96.9586 263.1783 13.20767563    03
Epoch (UTC): 25 May 2026 08:03:46
Eccentricity: 0.0002074
inclination: 87.9174°
perigee height: 1180 km
apogee height: 1183 km
right ascension of ascending node: 278.9960°
argument of perigee: 96.9586°
revolutions per day: 13.20767563
mean anomaly at epoch: 263.1783°

The dashed part of the orbit path shows where the satellite is in the earth's shadow,  

DLR